This demonstration page uses our WeatherBlox Daily Observations layout. Learn more.

Left ArrowRight Arrow

Hourly Observations for May 3, 2017

Temp ( °F °C ) Dew Point ( °F °C ) Humidity (%) Winds ( mph kmh ) Pressure ( in mb ) Visibility ( mi km ) Precip ( " mm )
12:15 am 00:15 Cloudy 45 7 41 5.1 88 88 WNW 5 7 30.06 1018 10 16 N/A
12:35 am 00:35 Cloudy 45 7.2 41 5 86 86 W 3 6 30.06 1018 10 16 N/A
12:55 am 00:55 Cloudy 44 6.5 40 4.7 88 88 N N/A 30.06 1018 10 16 N/A
1:15 am 01:15 Cloudy 44 6.6 41 5.2 91 91 N N/A 30.06 1018 10 16 N/A
1:35 am 01:35 Cloudy 44 6.5 41 5 90 90 N N/A 30.06 1018 10 16 N/A
1:55 am 01:55 Cloudy 44 6.7 42 5.5 92 92 N N/A 30.06 1018 10 16 N/A
2:15 am 02:15 Mostly Cloudy 44 6.7 42 5.3 91 91 N N/A 30.06 1018 10 16 N/A
2:35 am 02:35 Cloudy 44 6.7 41 5.2 90 90 NW 5 7 30.06 1018 10 16 N/A
2:55 am 02:55 Cloudy 43 6.3 41 5.1 92 92 NW 5 7 30.06 1018 10 16 N/A
3:15 am 03:15 Cloudy 43 6.3 41 5 91 91 NW 5 7 30.06 1018 10 16 N/A
3:35 am 03:35 Cloudy 44 6.5 41 5 90 90 NW 5 7 30.06 1018 10 16 N/A
3:55 am 03:55 Partly Cloudy 43 6 40 4.5 90 90 NW 6 9 30.09 1019 10 16 N/A
4:15 am 04:15 Clear 42 5.6 39 4 90 90 NW 5 7 30.06 1018 10 16 N/A
4:35 am 04:35 Clear 42 5.7 38 3.6 87 87 NW 7 11 30.09 1019 10 16 N/A
4:55 am 04:55 Clear 41 5.1 38 3.3 88 88 WNW 6 9 30.09 1019 10 16 N/A
5:15 am 05:15 Clear 41 5 38 3.1 88 88 WNW 5 7 30.09 1019 10 16 N/A
5:35 am 05:35 Clear 40 4.6 37 2.9 89 89 WNW 6 9 30.09 1019 10 16 N/A
5:55 am 05:55 Clear 41 4.9 38 3.2 89 89 WNW 6 9 30.09 1019 10 16 N/A
6:15 am 06:15 Clear 40 4.6 38 3.1 90 90 WNW 7 11 30.09 1019 10 16 N/A
6:35 am 06:35 Sunny 40 4.5 37 3 90 90 NW 7 11 30.12 1020 10 16 N/A
6:55 am 06:55 Partly Cloudy 40 4.5 37 3 90 90 NW 7 11 30.12 1020 10 16 N/A
7:15 am 07:15 Mostly Cloudy 41 5.2 38 3.4 88 88 NW 7 11 30.12 1020 10 16 N/A
7:35 am 07:35 Cloudy 43 6 39 3.8 86 86 NW 8 13 30.12 1020 10 16 N/A
7:50 am 07:50 Cloudy 43 6.3 40 4.2 87 87 NW 8 13 30.12 1020 10 16 N/A
8:15 am 08:15 Cloudy 45 7 40 4.6 85 85 NW 8 13 30.09 1019 10 16 N/A
8:35 am 08:35 Cloudy 45 7.2 40 4.7 84 84 NW 8 13 30.09 1019 10 16 N/A
8:55 am 08:55 Cloudy 46 8 42 5.3 83 83 NW 7 11 30.12 1020 10 16 N/A
9:15 am 09:15 Cloudy 47 8.6 42 5.5 81 81 NW 8 13 30.12 1020 10 16 N/A
9:35 am 09:35 Cloudy 49 9.2 42 5.5 78 78 NNW 6 9 30.12 1020 10 16 N/A
9:55 am 09:55 Cloudy 49 9.4 42 5.8 78 78 NNW 7 11 30.12 1020 10 16 N/A
10:15 am 10:15 Cloudy 49 9.5 42 5.6 77 77 NW 7 11 30.12 1020 10 16 N/A
10:35 am 10:35 Cloudy 51 10.4 44 6.4 76 76 NNW 7 11 30.09 1019 10 16 N/A
10:55 am 10:55 Mostly Cloudy 55 12.6 45 7.3 70 70 NNW 8 13 30.09 1019 10 16 N/A
11:15 am 11:15 Cloudy 54 12.3 43 6.3 67 67 NNW 8 13 30.09 1019 7 11 N/A
11:35 am 11:35 Cloudy 56 13.4 45 7.2 66 66 NNW 8 13 30.03 1017 10 16 N/A
11:55 am 11:55 Cloudy 57 13.8 44 6.5 62 62 NNW 8 13 30.03 1017 10 16 N/A
12:15 pm 12:15 Cloudy with Nearby Thunderstorms 58 14.5 42 5.6 55 55 NNW 14 22 30.03 1017 10 16 N/A
12:35 pm 12:35 Cloudy with Nearby Thunderstorms 56 13.6 45 7.1 65 65 N 15 24 30.06 1018 10 16 N/A
12:55 pm 12:55 Partly Cloudy 54 12.4 43 6 65 65 NNW 17 28 30.09 1019 10 16 N/A
1:15 pm 13:15 Mostly Cloudy 53 11.5 41 5.2 66 66 N 18 30 30.09 1019 10 16 N/A
1:35 pm 13:35 Cloudy with Light Rain 51 10.6 43 6.1 74 74 N 15 24 30.09 1019 10 16 N/A
1:55 pm 13:55 Cloudy 53 11.6 44 6.6 72 72 N 17 28 30.09 1019 10 16 N/A
2:15 pm 14:15 Cloudy 53 11.7 44 6.5 71 71 N 22 35 30.09 1019 10 16 N/A
2:35 pm 14:35 Cloudy 54 12 43 6.1 67 67 N 17 28 30.09 1019 10 16 N/A
2:55 pm 14:55 Mostly Cloudy 54 12.1 43 6.3 68 68 N 15 24 30.09 1019 10 16 N/A
3:15 pm 15:15 Partly Cloudy 55 12.9 45 7 68 68 N 16 26 30.09 1019 10 16 N/A
3:35 pm 15:35 Partly Cloudy 55 12.6 44 6.5 67 67 N 16 26 30.09 1019 10 16 N/A
3:55 pm 15:55 Partly Cloudy 54 12.2 41 4.9 61 61 NNW 14 22 30.09 1019 10 16 N/A
4:15 pm 16:15 Mostly Cloudy 56 13.5 42 5.4 58 58 NNW 16 26 30.06 1018 10 16 N/A
4:35 pm 16:35 undefined N/A N/A N/A undefined N/A N/A N/A N/A
4:55 pm 16:55 Partly Cloudy 56 13.6 40 4.5 54 54 N 21 33 30.06 1018 10 16 0.03 0.76
5:15 pm 17:15 Partly Cloudy 57 13.9 40 4.2 52 52 N 25 41 30.06 1018 10 16 N/A
5:35 pm 17:35 Partly Cloudy 57 14.1 40 4.6 53 53 N 18 30 30.06 1018 10 16 N/A
5:55 pm 17:55 Sunny 57 14 40 4.3 52 52 N 17 28 30.06 1018 10 16 N/A
6:15 pm 18:15 Partly Cloudy 57 14.1 41 5 55 55 N 18 30 30.06 1018 10 16 N/A
6:35 pm 18:35 Sunny 58 14.4 40 4.6 52 52 N 14 22 30.06 1018 10 16 N/A
6:55 pm 18:55 Partly Cloudy 56 13.6 41 4.8 56 56 N 14 22 30.06 1018 10 16 N/A
7:15 pm 19:15 Mostly Cloudy 57 13.7 40 4.6 54 54 NNE 16 26 30.06 1018 10 16 N/A
7:35 pm 19:35 Sunny 56 13.5 41 4.9 56 56 NNE 14 22 30.06 1018 10 16 N/A
7:55 pm 19:55 Mostly Cloudy 56 13.3 40 4.5 55 55 NE 21 33 30.12 1020 10 16 N/A
8:15 pm 20:15 Mostly Cloudy 53 11.4 41 5 65 65 N 8 13 30.12 1020 10 16 N/A
8:35 pm 20:35 Partly Cloudy 50 10.1 40 4.5 68 68 N 7 11 30.15 1021 10 16 N/A
8:55 pm 20:55 Clear 48 9 40 4.7 75 75 N 7 11 30.15 1021 10 16 N/A
9:15 pm 21:15 Clear 46 7.7 40 4.5 80 80 NNE 7 11 30.15 1021 10 16 N/A
9:35 pm 21:35 Clear 48 9 41 4.8 75 75 NNE 10 17 30.15 1021 10 16 N/A
9:55 pm 21:55 Clear 46 8 40 4.5 79 79 N 6 9 30.15 1021 10 16 N/A
10:15 pm 22:15 Partly Cloudy 47 8.1 39 4.1 76 76 N 6 9 30.15 1021 10 16 N/A
10:35 pm 22:35 Clear 46 7.7 39 4 78 78 N 6 9 30.18 1022 10 16 N/A
10:55 pm 22:55 Clear 45 7 39 3.7 80 80 NNW 7 11 30.21 1023 10 16 N/A
11:15 pm 23:15 Clear 43 6.1 39 3.9 86 86 NW 7 11 30.21 1023 10 16 N/A
11:35 pm 23:35 Clear 44 6.8 39 4 83 83 NNW 7 11 30.21 1023 10 16 N/A
11:55 pm 23:55 Clear 43 6.1 38 3.6 84 84 WNW 6 9 30.21 1023 10 16 N/A

Powered by AerisWeather